This demonstration page uses our WeatherBlox Daily Observations layout. Learn more.

Left ArrowRight Arrow

41.86663, -103.66717

Hourly Observations for July 12, 2017

Temp ( °F °C ) Dew Point ( °F °C ) Humidity (%) Winds ( mph kmh ) Pressure ( in mb ) Visibility ( mi km ) Precip ( " mm )
12:53 am 00:53 Clear 72 22.2 57 13.9 59 59 N 5 7 29.78 1009 10 16 0.00 0.00
1:53 am 01:53 Clear 71 21.7 56 13.3 59 59 N 3 6 29.78 1008 10 16 0.00 0.00
2:41 am 02:41 Clear 72 22.2 55 12.8 55 55 NNE 14 22 29.74 1007 10 16 0.00 0.00
2:53 am 02:53 Clear 73 22.8 55 12.8 53 53 NNE 15 24 29.79 1009 10 16 0.00 0.00
3:53 am 03:53 Partly Cloudy 71 21.7 52 11.1 51 51 NNE 8 13 29.84 1010 10 16 0.00 0.00
4:53 am 04:53 Clear 71 21.7 51 10.6 49 49 VRB 5 7 29.88 1012 10 16 0.00 0.00
5:53 am 05:53 Partly Cloudy 69 20.6 52 11.1 55 55 ESE 7 11 29.91 1013 10 16 0.00 0.00
6:53 am 06:53 Mostly Sunny 70 21.1 52 11.1 53 53 E 6 9 29.94 1014 10 16 0.00 0.00
7:53 am 07:53 Sunny 70 21.1 53 11.7 55 55 NE 6 9 29.96 1015 10 16 0.00 0.00
8:53 am 08:53 Sunny 71 21.7 53 11.7 53 53 ENE 3 6 29.98 1015 10 16 0.00 0.00
9:53 am 09:53 Sunny 72 22.2 53 11.7 52 52 Calm 30.00 1016 10 16 0.00 0.00
10:53 am 10:53 Sunny 76 24.4 53 11.7 45 45 E 5 7 30.00 1016 10 16 0.00 0.00
11:53 am 11:53 Sunny 76 24.4 54 12.2 47 47 S 6 9 30.01 1016 10 16 0.00 0.00
12:53 pm 12:53 Sunny 78 25.6 55 12.8 45 45 SE 8 13 30.01 1016 10 16 0.00 0.00
1:53 pm 13:53 Sunny 78 25.6 55 12.8 45 45 SSE 8 13 30.00 1016 10 16 0.00 0.00
2:53 pm 14:53 Sunny 81 27.2 55 12.8 41 41 SE 13 20 29.99 1016 10 16 0.00 0.00
3:53 pm 15:53 Sunny 81 27.2 52 11.1 37 37 SSE 16 26 29.99 1016 10 16 0.00 0.00
4:53 pm 16:53 Sunny 81 27.2 53 11.7 38 38 SE 13 20 29.98 1015 10 16 0.00 0.00
5:53 pm 17:53 Sunny 80 26.7 51 10.6 37 37 SE 14 22 29.98 1015 10 16 0.00 0.00
6:53 pm 18:53 Sunny 78 25.6 53 11.7 42 42 SE 12 19 29.98 1015 10 16 0.00 0.00
7:53 pm 19:53 Sunny 75 23.9 53 11.7 46 46 ESE 12 19 30.01 1016 10 16 0.00 0.00
8:53 pm 20:53 Clear 72 22.2 54 12.2 53 53 ESE 9 15 30.01 1016 10 16 0.00 0.00
9:53 pm 21:53 Clear 67 19.4 55 12.8 66 66 ESE 8 13 30.04 1017 10 16 0.00 0.00
10:53 pm 22:53 Clear 65 18.3 55 12.8 70 70 E 8 13 30.06 1018 10 16 0.00 0.00
11:53 pm 23:53 Clear 65 18.3 56 13.3 73 73 E 10 17 30.10 1019 10 16 0.00 0.00

Powered by AerisWeather